Regional Weather Roundup
Issued by NWS Columbia, SC

Home | Current Version | Previous Version | Text Only | Print | Product List | Glossary On
Versions: 1 2 3 4 5 6 7 8 9 10 11 12 13 14 15 16 17 18 19 20 21 22 23 24 25 26 27 28 29 30 31 32 33 34 35 36 37 38 39 40 41 42 43 44 45 46 47 48 49 50
000
ASUS42 KCAE 260010
RWRCAE
REGIONAL WEATHER ROUNDUP
NATIONAL WEATHER SERVICE COLUMBIA SC
800 PM EDT WED APR 25 2018

NOTE: "FAIR" INDICATES FEW OR NO CLOUDS BELOW 12,000 FEET WITH NO
SIGNIFICANT WEATHER AND/OR OBSTRUCTIONS TO VISIBILITY.

NOT ALL STATIONS ARE QUALITY CONTROLLED BY THE NATIONAL
WEATHER SERVICE. USE DATA WITH CAUTION...ESPECIALLY
DEWPOINT OBSERVATIONS.

SCZ001>056-GAZ040-063>065-077-260100-
...UPSTATE SOUTH CAROLINA...

CITY           SKY/WX    TMP DP  RH WIND       PRES   REMARKS
ANDERSON       FAIR      69  52  54 W9        29.83R
6HR MIN TEMP:  69; 6HR MAX TEMP:  76;

LIBERTY        CLOUDY    68  52  56 NE6       29.83R
6HR MIN TEMP:  68; 6HR MAX TEMP:  76;

SPARTANBURG    FAIR      64  46  52 N9        29.83S
CLEMSON        MOCLDY    67  49  52 NW12      29.84R
6HR MIN TEMP:  67; 6HR MAX TEMP:  76;

GREENVILLE     MOCLDY    67  50  54 N13       29.85R
6HR MIN TEMP:  67; 6HR MAX TEMP:  75;

GREENWOOD      CLOUDY    70  53  54 W5        29.83R
6HR MIN TEMP:  70; 6HR MAX TEMP:  75;

GREER          FAIR      65  49  56 N8        29.84S
6HR MIN TEMP:  65; 6HR MAX TEMP:  75;

ROCK HILL      MOCLDY    67  52  58 N7        29.81S
6HR MIN TEMP:  67; 6HR MAX TEMP:  75;

CHESTER        MOCLDY    64  52  63 NW3       29.82R
LAURENS        MOCLDY    68  55  64 N7        29.82R


...CENTRAL SOUTH CAROLINA...

CITY           SKY/WX    TMP DP  RH WIND       PRES   REMARKS
COLUMBIA APT   FAIR      74  55  51 NW7       29.79R
6HR MIN TEMP:  74; 6HR MAX TEMP:  79;

COLUMBIA OWENS FAIR      74  52  46 VRB5      29.80R
6HR MIN TEMP:  74; 6HR MAX TEMP:  77;

MCENTIRE ANGB  PTCLDY    71  54  55 W5        29.80R
6HR MIN TEMP:  71; 6HR MAX TEMP:  77;

ORANGEBURG     FAIR      71  55  56 CALM      29.80R
6HR MIN TEMP:  71; 6HR MAX TEMP:  77;

SUMTER SHAW    FAIR      70  54  56 W5        29.77R
6HR MIN TEMP:  70; 6HR MAX TEMP:  78;

AIKEN          FAIR      68  52  56 W7        29.85R
MANNING        FAIR      64  54  68 CALM      29.79R
CAMDEN         MOCLDY    72  55  56 CALM      29.80R
LANCASTER      FAIR      68  55  64 CALM      29.81R
WINNSBORO      FAIR      68  54  60 W3        29.80R


...EASTERN AND COASTAL SOUTH CAROLINA...

CITY           SKY/WX    TMP DP  RH WIND       PRES   REMARKS
MYRTLE BEACH   FAIR      72  57  59 W6        29.79R
6HR MIN TEMP:  69; 6HR MAX TEMP:  79;

N MYRTLE BCH   FAIR      71  56  58 CALM      29.77R
6HR MIN TEMP:  68; 6HR MAX TEMP:  76;

CONWAY         FAIR      68  57  68 CALM      29.78R
MARION         FAIR      66  59  77 CALM      29.78R
HARTSVILLE     FAIR      64  55  72 CALM      29.79R
FLORENCE       MOCLDY    73  56  54 W5        29.78R
6HR MIN TEMP:  73; 6HR MAX TEMP:  79;

DARLINGTON     CLOUDY    69  62  78 CALM      29.79R
6HR MIN TEMP:  69; 6HR MAX TEMP:  76;

CHARLESTON APT FAIR      74  55  51 W7        29.80R
6HR MIN TEMP:  74; 6HR MAX TEMP:  81;

MOUNT PLEASANT FAIR      72  63  73 CALM      29.80R
WALTERBORO     FAIR      72  54  53 W6        29.82R
BEAUFORT       FAIR      72  56  57 W7        29.82
6HR MIN TEMP:  72; 6HR MAX TEMP:  80;



...EASTERN GEORGIA...

CITY           SKY/WX    TMP DP  RH WIND       PRES   REMARKS
AUGUSTA BUSH F FAIR      70  54  56 W5        29.81S
6HR MIN TEMP:  70; 6HR MAX TEMP:  79;

AUGUSTA DANIEL FAIR      71  53  52 VRB7      29.83R
6HR MIN TEMP:  71; 6HR MAX TEMP:  77;

THOMSON        FAIR      67  56  65 NW6       29.89R
6HR MIN TEMP:  67; 6HR MAX TEMP:  76;

WASHINGTON     FAIR      68  52  56 W7G16     29.84R
CLAXTON        CLOUDY    73  56  56 W5        29.85R
6HR MIN TEMP:  73; 6HR MAX TEMP:  77;

SYLVANIA       FAIR      69  58  66 W3        29.84S
STATESBORO     FAIR      70  50  49 W8        29.84S
6HR MIN TEMP:  70; 6HR MAX TEMP:  78;

SAVANNAH       MOCLDY    73  55  53 W7        29.84R
6HR MIN TEMP:  73; 6HR MAX TEMP:  79;



...SOUTHERN NORTH CAROLINA...

CITY           SKY/WX    TMP DP  RH WIND       PRES   REMARKS
CHARLOTTE      MOCLDY    67  52  58 NW6       29.82R
6HR MIN TEMP:  67; 6HR MAX TEMP:  73;

MONROE         FAIR      68  51  54 N6        29.80R
6HR MIN TEMP:  68; 6HR MAX TEMP:  74;

WADESBORO      FAIR      69  53  57 NW3       29.78S
6HR MIN TEMP:  69; 6HR MAX TEMP:  75;

ROCKINGHAM     FAIR      68  59  72 CALM      29.79R
6HR MIN TEMP:  68; 6HR MAX TEMP:  75;

RUTHERFORDTON  FAIR      64  49  57 NW7       29.86S
6HR MIN TEMP:  64; 6HR MAX TEMP:  72;

ASHEVILLE      CLOUDY    57  49  74 N10       29.92R
6HR MIN TEMP:  57; 6HR MAX TEMP:  65;


$$



USA.gov is the U.S. government's official web portal to all federal, state and local government web resources and services.